Location: Newark
(48.1500°N, 2.9667°W)
Time: 05:49:44
(UTC+00:00)

Altair - Pass Details

Date: 03 February 2020
Orbit: 1502 x 1682 km, 47.2° (Epoch: 19 February)

Event Time Altitude Azimuth Distance (km) Brightness Sun altitude
Rises 08:06:10 0° 253° (WSW) 4,850 9.7 3.3°
Reaches altitude 10° 08:09:16 10° 253° (WSW) 3,885 9.2 3.8°
Maximum altitude 08:19:17 81° 168° (SSE) 1,695 8.0 5.2°
Drops below altitude 10° 08:29:29 10° 83° (E) 3,947 10.5 6.6°
Sets 08:32:39 0° 83° (E) 4,931 11.0 7.1°
